Simultaneous Nadir Overpasses (SNOs) Predictions

Prediction of SNOs between AQUA and GOES-15 Satellite Orbit:

Table of predicted SNOs for the next 14.0 days since TLE Epoch: 5/18/2013
Index Date Time (AQUA) AQUA Lat,Lon GOES-15 Lat,Lon Distance(km) Time Diff (sec)
1 05/20/2013 10:26:25 -0.55,-132.68 0.01,-135.39 307.92 80
2 05/20/2013 22:47:50 -0.53,-137.88 0.00,-135.38 283.98 80
3 05/22/2013 22:35:39 0.07,-134.92 0.00,-135.36 48.78 80
4 05/24/2013 22:23:28 0.69,-131.97 0.01,-135.32 380.65 80
5 05/25/2013 10:44:44 0.38,-137.13 -0.02,-135.32 206.50 80
6 05/27/2013 10:32:33 -0.27,-134.18 -0.02,-135.28 124.70 80
7 05/27/2013 22:53:56 -0.84,-139.37 0.03,-135.25 468.30 80
8 05/29/2013 10:20:21 -0.88,-131.22 -0.01,-135.23 455.70 80
9 05/29/2013 22:41:45 -0.22,-136.42 0.03,-135.21 137.21 80
10 05/31/2013 22:29:32 0.36,-133.45 0.02,-135.16 193.83 80
11 06/01/2013 10:50:47 0.69,-138.61 -0.04,-135.16 393.01 80




NCC Satellite Simultaneous Nadir Overpasses (SNOs) Prediction Service
